Weather WX

World > North America > United States > Ohio

Urbana, Ohio Regional Weather

Lat: 40.11N, Lon: 83.75W
Wx Zone: OHZ052
Feedback

Urbana, OH Regional Weather

Expires:201906270200;;132421
ASUS41 KCLE 270112
RWRCLE
OHIO REGIONAL WEATHER ROUNDUP
NATIONAL WEATHER SERVICE WILMINGTON, OH
900 PM EDT WED JUN 26 2019

NOTE: "FAIR" INDICATES FEW OR NO CLOUDS BELOW 12,000 FEET WITH NO
SIGNIFICANT WEATHER AND/OR OBSTRUCTIONS TO VISIBILITY.


OHZ042-051>053-060>062-070>072-077>081-270200-
  SOUTHWEST OHIO
  
CITY           SKY/WX    TMP DP  RH WIND       PRES   REMARKS
CINC-COVINGTON MOCLDY    81  66  60 S5        30.12R                  
CINC-LUNKEN    FAIR      78  71  79 CALM      30.11R                  
HAMILTON       FAIR      78  70  76 SW3       30.11R                  
DAYTON         FAIR      81  65  58 SW6       30.12R                  
WRIGHT-PAT AFB FAIR      80  67  64 SW6       30.10R                  
DAYTON GENERAL FAIR      86  64  47 SW5       30.11R                  
WILMINGTON     FAIR      78  66  66 S6        30.12R                  
$$


SKY/WX - Weather  TMP - Temperature  DP - Dew Point  RH - Relative Humidity
WIND - Wind Direction/Speed PRES - Barometric Pressure VSB - Visibility
WCI - Wind Chill Index E13G22 Wind - East Wind 13 mph/Gusts of 22 mph